Weather in Selidove

Ukraine / Donetsk Region     48˚08′52″N   37˚17′55″E
temp.,
°C
wind,
m/s
gust,
m/s
humid.,
%
clouds,
%
prec.,
mm/h
press.,
hPa
HPBL,
m
2 december, wed
wed223:00ese71181100 0.0 1027608
02:00ese61179100 0.0 1028591
05:00e61077100 0.0 1027536
08:00+1˚ese61181100 0.0 1028600
11:00+1˚ese697298 0.0 1029594
14:00+2˚ese697193 0.0 1028656
17:00ese697786 0.0 1028619
20:00ese697793 0.0 1029560
3 december, thu
thu323:00ese61079100 0.0 1029532
02:00ese51087100 0.1 1029496
05:00ese5992100 1.5 1028498
08:00ese61091100 3.0 1029484
11:00ese5992100 0.9 1029504
14:00+1˚ese4889100 1.7 1029524
17:00+1˚ese4989100 0.0 1029509
20:00+1˚ese51089100 0.0 1029415
4 december, fri
fri423:00+1˚ese5989100 0.0 1029453
02:00+1˚ese5987100 0.0 1029437
05:00ese598798 0.0 1028500
08:00ese6108699 0.0 1029558
11:00+2˚ese6982100 0.0 1029629
14:00+2˚ese6980100 0.0 1028636
17:00+1˚e61082100 0.0 1030562
20:00+1˚ese61181100 0.0 1030588
5 december, sat
sat523:00ese61078100 0.0 1030545
02:00−1˚e6117694 0.0 1031483
05:00−2˚e6117699 0.0 1030468
08:00−2˚e6137758 0.0 1031462
11:00+1˚e711650 0.0 1031542
14:00+1˚e712520 0.0 1031645
17:00−2˚e714560 0.0 1032480
20:00−3˚e714540 0.0 1033475
6 december, sun
sun623:00−4˚e612530 0.0 1033440
02:00−5˚e612550 0.0 1033415
05:00−5˚e612560 0.0 1033388
08:00−5˚e713530 0.0 1034420
11:00−1˚e712380 0.0 1033526
14:00−1˚e711380 0.0 1033542
17:00−4˚e713500 0.0 1033417
20:00−5˚e712590 0.0 1034429